Weather History for North Las Vegas, NV

Change the Weather History Date:

Wednesday, March 12, 2014

  Actual Average Record
Temperature  
Mean Temperature 58 °F -  
Max Temperature 68 °F 68 °F 82 °F (2007)
Min Temperature 50 °F 42 °F 26 °F (1952)
Degree Days  
Heating Degree Days 7    
Growing Degree Days 8 (Base 50)    
Moisture  
Dew Point 16 °F    
Average Humidity 21    
Maximum Humidity 32    
Minimum Humidity 11    
Precipitation  
Precipitation 0.00 in - - ()
Sea Level Pressure  
Sea Level Pressure 30.15 in    
Wind  
Wind Speed 10 mph (North)    
Max Wind Speed 17 mph    
Max Gust Speed 24 mph    
Visibility 10 miles    
Events      
Averages and records for this station are not official NWS values.
T = Trace of Precipitation, MM = Missing Value Source: NWS Daily Summary

Daily Weather History Graph

Daily Weather History Graph

Search for Another Location

Airport:

Trip Planner

Search our weather history database for the weather conditions in past years. The results will help you decide how hot, cold, wet, or windy it might be!

Date:

Astronomy

Mar. 12, 2014 Rise Set
Actual Time 6:55 AM PDT 6:45 PM PDT
Civil Twilight 6:30 AM PDT 7:11 PM PDT
Nautical Twilight 6:00 AM PDT 7:41 PM PDT
Astronomical Twilight 5:30 AM PDT 8:11 PM PDT
Moon 3:25 PM PDT (3/12) 4:24 AM PDT (3/12)
Length of Visible Light 12h 41m
Length of Day
11h 49m
Waxing Gibbous, 86% of the Moon is Illuminated
Mar 12
Waxing Gibbous
Mar 16
Full
Mar 23
Last Quarter
Mar 30
New
Apr 7
First Quarter

Hourly Weather History & Observations

Time (PDT) Temp. Dew Point Humidity Pressure Visibility Wind Dir Wind Speed Gust Speed Precip Events Conditions
12:53 AM 54.0 °F 14.0 °F 21% 30.19 in 10.0 mi North 6.9 mph - N/A   Clear
1:53 AM 53.1 °F 15.1 °F 22% 30.20 in 10.0 mi NNW 10.4 mph - N/A   Clear
2:53 AM 52.0 °F 18.0 °F 26% 30.19 in 10.0 mi NNW 15.0 mph - N/A   Clear
3:53 AM 51.1 °F 19.9 °F 29% 30.18 in 10.0 mi NNW 13.8 mph - N/A   Clear
4:53 AM 51.1 °F 21.0 °F 31% 30.19 in 10.0 mi North 9.2 mph - N/A   Clear
5:53 AM 50.0 °F 21.0 °F 32% 30.21 in 10.0 mi North 13.8 mph - N/A   Clear
6:53 AM 50.0 °F 21.0 °F 32% 30.22 in 10.0 mi NNW 16.1 mph 20.7 mph N/A   Clear
7:53 AM 51.1 °F 21.0 °F 31% 30.24 in 10.0 mi NNW 12.7 mph - N/A   Clear
8:53 AM 54.0 °F 21.9 °F 29% 30.26 in 10.0 mi NNW 17.3 mph 24.2 mph N/A   Clear
9:53 AM 57.0 °F 21.0 °F 25% 30.26 in 10.0 mi NNW 10.4 mph 18.4 mph N/A   Clear
10:53 AM 59.0 °F 19.0 °F 21% 30.24 in 10.0 mi Variable 4.6 mph 17.3 mph N/A   Clear
11:53 AM 62.1 °F 16.0 °F 17% 30.22 in 10.0 mi East 13.8 mph 19.6 mph N/A   Clear
12:53 PM 63.0 °F 16.0 °F 16% 30.19 in 10.0 mi East 8.1 mph - N/A   Clear
1:53 PM 64.9 °F 15.1 °F 15% 30.15 in 10.0 mi East 12.7 mph 20.7 mph N/A   Clear
2:53 PM 64.9 °F 12.9 °F 13% 30.13 in 10.0 mi East 11.5 mph 16.1 mph N/A   Clear
3:53 PM 66.0 °F 12.0 °F 12% 30.10 in 10.0 mi Variable 4.6 mph 17.3 mph N/A   Clear
4:53 PM 66.9 °F 10.9 °F 11% 30.07 in 10.0 mi Calm Calm - N/A   Clear
5:53 PM 66.9 °F 10.9 °F 11% 30.06 in 10.0 mi Calm Calm - N/A   Clear
6:53 PM 64.9 °F 10.9 °F 12% 30.06 in 10.0 mi Calm Calm - N/A   Clear
7:53 PM 63.0 °F 12.9 °F 14% 30.06 in 10.0 mi Calm Calm - N/A   Clear
8:53 PM 57.0 °F 17.1 °F 21% 30.07 in 10.0 mi North 6.9 mph - N/A   Clear
9:53 PM 57.0 °F 16.0 °F 20% 30.06 in 10.0 mi NW 8.1 mph - N/A   Clear
10:53 PM 54.0 °F 16.0 °F 22% 30.05 in 10.0 mi NNW 9.2 mph - N/A   Clear
11:53 PM 55.9 °F 15.1 °F 20% 30.04 in 10.0 mi NNW 9.2 mph - N/A   Clear